,,,PA_Meas_PMT16A,,PR_Meas_QMR101_102,,RH_Meas_QMH101,,SR_Meas_QMS101,,TA_Meas_QMH101,,GenWind,,GenWind,
date,time,status,PA,status,PR,status,RH,status,SR,status,TA,status,DirAvg,status,SpdAvg,
2010-11-04, 00:00:04,VALID,999.797,VALID,0,VALID,92.0819,VALID,0,VALID,23.9744,VALID,41,VALID,0.940625,
2010-11-04, 00:01:04,VALID,999.808,VALID,0,VALID,92.1277,VALID,0,VALID,23.9531,VALID,38,VALID,0.944531,
2010-11-04, 00:02:04,VALID,999.807,VALID,0,VALID,92.1887,VALID,0,VALID,23.9744,VALID,40,VALID,0.882031,
2010-11-04, 00:03:04,VALID,999.799,VALID,0,VALID,92.2726,VALID,0,VALID,24.0134,VALID,40,VALID,0.760156,
2010-11-04, 00:04:04,VALID,999.766,VALID,0,VALID,92.2879,VALID,0,VALID,23.9921,VALID,40,VALID,0.851953,
2010-11-04, 00:05:04,VALID,999.761,VALID,0,VALID,92.3184,VALID,0,VALID,24.0116,VALID,40,VALID,1.0918,
2010-11-04, 00:06:04,VALID,999.79,VALID,0,VALID,92.3108,VALID,0,VALID,23.9921,VALID,39,VALID,0.702734,
2010-11-04, 00:07:04,VALID,999.779,VALID,0,VALID,92.326,VALID,0,VALID,24.0116,VALID,41,VALID,0.975391,
2010-11-04, 00:08:04,VALID,999.775,VALID,0,VALID,92.3184,VALID,0,VALID,24.0134,VALID,36,VALID,0.701172,
2010-11-04, 00:09:04,VALID,999.739,VALID,0,VALID,92.326,VALID,0,VALID,24.0134,VALID,36,VALID,0.877344,
2010-11-04, 00:10:04,VALID,999.74,VALID,0,VALID,92.326,VALID,0,VALID,24.0116,VALID,36,VALID,0.667188,
2010-11-04, 00:11:04,VALID,999.745,VALID,0,VALID,92.3413,VALID,0,VALID,24.0329,VALID,35,VALID,0.746875,
2010-11-04, 00:12:04,VALID,999.732,VALID,0,VALID,92.3337,VALID,0,VALID,24.0116,VALID,35,VALID,0.711719,
2010-11-04, 00:13:04,VALID,999.683,VALID,0,VALID,92.3718,VALID,0,VALID,24.0525,VALID,35,VALID,0.583203,
2010-11-04, 00:14:04,VALID,999.711,VALID,0,VALID,92.3794,VALID,0,VALID,24.0525,VALID,35,VALID,0.214453,
2010-11-04, 00:15:04,VALID,999.684,VALID,0,VALID,92.3947,VALID,0,VALID,24.0506,VALID,35,VALID,0.230469,
2010-11-04, 00:16:04,VALID,999.671,VALID,0,VALID,92.4328,VALID,0,VALID,24.0701,VALID,35,VALID,0.701172,
2010-11-04, 00:17:04,VALID,999.648,VALID,0,VALID,92.41,VALID,0,VALID,24.0915,VALID,24,VALID,0.917578,
2010-11-04, 00:18:04,VALID,999.64,VALID,0,VALID,92.41,VALID,0,VALID,24.0915,VALID,22,VALID,0.801562,
2010-11-04, 00:19:04,VALID,999.614,VALID,0,VALID,92.3794,VALID,0,VALID,24.0915,VALID,12,VALID,0.753125,
2010-11-04, 00:20:04,VALID,999.607,VALID,0,VALID,92.3337,VALID,0,VALID,24.0915,VALID,12,VALID,0.392188,
2010-11-04, 00:21:04,VALID,999.589,VALID,0,VALID,92.2574,VALID,0,VALID,24.0915,VALID,12,VALID,0.392578,
2010-11-04, 00:22:04,VALID,999.618,VALID,0,VALID,92.2116,VALID,0,VALID,24.0897,VALID,12,VALID,0.394531,
2010-11-04, 00:23:04,VALID,999.594,VALID,0,VALID,92.1353,VALID,0,VALID,24.0897,VALID,12,VALID,0.335938,
2010-11-04, 00:24:04,VALID,999.598,VALID,0,VALID,92.0895,VALID,0,VALID,24.1092,VALID,12,VALID,0.321875,
2010-11-04, 00:25:04,VALID,999.603,VALID,0,VALID,92.0285,VALID,0,VALID,24.1287,VALID,12,VALID,0.200781,
2010-11-04, 00:26:04,VALID,999.617,VALID,0,VALID,91.9522,VALID,0,VALID,24.1482,VALID,12,VALID,0.260938,
2010-11-04, 00:27:04,VALID,999.633,VALID,0,VALID,91.8759,VALID,0,VALID,24.15,VALID,12,VALID,0.0976563,
2010-11-04, 00:28:04,VALID,999.623,VALID,0,VALID,91.8072,VALID,0,VALID,24.1696,VALID,12,VALID,0,
2010-11-04, 00:29:04,VALID,999.611,VALID,0,VALID,91.7385,VALID,0,VALID,24.1677,VALID,12,VALID,0.00117188,
2010-11-04, 00:30:04,VALID,999.599,VALID,0,VALID,91.7004,VALID,0,VALID,24.1872,VALID,12,VALID,0.341406,
2010-11-04, 00:31:04,VALID,999.635,VALID,0,VALID,91.6546,VALID,0,VALID,24.1891,VALID,12,VALID,0.300391,
2010-11-04, 00:32:04,VALID,999.63,VALID,0,VALID,91.5631,VALID,0,VALID,24.1872,VALID,12,VALID,0.314453,
2010-11-04, 00:33:04,VALID,999.665,VALID,0,VALID,91.5402,VALID,0,VALID,24.2281,VALID,12,VALID,0.426953,
2010-11-04, 00:34:04,VALID,999.649,VALID,0,VALID,91.5326,VALID,0,VALID,24.2458,VALID,12,VALID,0.397266,
2010-11-04, 00:35:04,VALID,999.631,VALID,0,VALID,91.5783,VALID,0,VALID,24.2866,VALID,12,VALID,0.316797,
2010-11-04, 00:36:04,VALID,999.627,VALID,0,VALID,91.5478,VALID,0,VALID,24.2848,VALID,12,VALID,0.225391,
2010-11-04, 00:37:04,VALID,999.623,VALID,0,VALID,91.4715,VALID,0,VALID,24.3062,VALID,12,VALID,0.216016,
2010-11-04, 00:38:04,VALID,999.621,VALID,0,VALID,91.3876,VALID,0,VALID,24.3238,VALID,12,VALID,0.104297,
2010-11-04, 00:39:04,VALID,999.601,VALID,0,VALID,91.2197,VALID,0,VALID,24.3238,VALID,12,VALID,0,
2010-11-04, 00:40:04,VALID,999.595,VALID,0,VALID,91.1892,VALID,0,VALID,24.3824,VALID,12,VALID,0.308594,
2010-11-04, 00:41:04,VALID,999.584,VALID,0,VALID,91.1892,VALID,0,VALID,24.3824,VALID,12,VALID,0.429297,
2010-11-04, 00:42:04,VALID,999.583,VALID,0,VALID,91.0443,VALID,0,VALID,24.3842,VALID,12,VALID,0.127734,
2010-11-04, 00:43:04,VALID,999.531,VALID,0,VALID,90.8459,VALID,0,VALID,24.3842,VALID,12,VALID,0,
2010-11-04, 00:44:04,VALID,999.532,VALID,0,VALID,90.7467,VALID,0,VALID,24.3824,VALID,12,VALID,0,
2010-11-04, 00:45:04,VALID,999.532,VALID,0,VALID,90.762,VALID,0,VALID,24.4233,VALID,12,VALID,0,
2010-11-04, 00:46:04,VALID,999.499,VALID,0,VALID,90.823,VALID,0,VALID,24.4233,VALID,12,VALID,0,
2010-11-04, 00:47:04,VALID,999.508,VALID,0,VALID,90.8688,VALID,0,VALID,24.4019,VALID,12,VALID,0,
2010-11-04, 00:48:04,VALID,999.479,VALID,0,VALID,90.9298,VALID,0,VALID,24.4233,VALID,12,VALID,0,
2010-11-04, 00:49:04,VALID,999.462,VALID,0,VALID,90.9603,VALID,0,VALID,24.4233,VALID,12,VALID,0.173438,
2010-11-04, 00:50:04,VALID,999.464,VALID,0,VALID,90.9527,VALID,0,VALID,24.4019,VALID,12,VALID,0.29375,
2010-11-04, 00:51:04,VALID,999.413,VALID,0,VALID,90.9603,VALID,0,VALID,24.4019,VALID,12,VALID,0.174609,
2010-11-04, 00:52:04,VALID,999.404,VALID,0,VALID,90.9909,VALID,0,VALID,24.4019,VALID,16,VALID,0.537109,
2010-11-04, 00:53:04,VALID,999.383,VALID,0,VALID,90.9146,VALID,0,VALID,24.4019,VALID,85,VALID,0.623828,
2010-11-04, 00:54:04,VALID,999.365,VALID,0,VALID,90.823,VALID,0,VALID,24.4233,VALID,85,VALID,0.573438,
2010-11-04, 00:55:04,VALID,999.337,VALID,0,VALID,90.7391,VALID,0,VALID,24.4409,VALID,85,VALID,0.482422,
2010-11-04, 00:56:04,VALID,999.306,VALID,0,VALID,90.6628,VALID,0,VALID,24.4604,VALID,92,VALID,0.481641,
2010-11-04, 00:57:04,VALID,999.296,VALID,0,VALID,90.5941,VALID,0,VALID,24.4818,VALID,92,VALID,0.614062,
2010-11-04, 00:58:04,VALID,999.292,VALID,0,VALID,90.5712,VALID,0,VALID,24.4409,VALID,92,VALID,0.577344,
2010-11-04, 00:59:04,VALID,999.285,VALID,0,VALID,90.6323,VALID,0,VALID,24.4818,VALID,92,VALID,0.513672,
2010-11-04, 01:00:04,VALID,999.299,VALID,0,VALID,90.6704,VALID,0,VALID,24.4818,VALID,92,VALID,0.627344,
2010-11-04, 01:01:04,VALID,999.292,VALID,0,VALID,90.7543,VALID,0,VALID,24.4818,VALID,92,VALID,0.505859,
2010-11-04, 01:02:04,VALID,999.237,VALID,0,VALID,90.7925,VALID,0,VALID,24.4604,VALID,92,VALID,0.409766,
2010-11-04, 01:03:04,VALID,999.251,VALID,0,VALID,90.8001,VALID,0,VALID,24.4623,VALID,92,VALID,0.215625,
2010-11-04, 01:04:04,VALID,999.215,VALID,0,VALID,90.8306,VALID,0,VALID,24.4214,VALID,92,VALID,0.0878906,
2010-11-04, 01:05:04,VALID,999.236,VALID,0,VALID,90.8611,VALID,0,VALID,24.4019,VALID,92,VALID,0.00703125,
2010-11-04, 01:06:04,VALID,999.234,VALID,0,VALID,90.9222,VALID,0,VALID,24.4019,VALID,92,VALID,0,
2010-11-04, 01:07:04,VALID,999.2,VALID,0,VALID,91.0061,VALID,0,VALID,24.4037,VALID,92,VALID,0.141797,
2010-11-04, 01:08:04,VALID,999.216,VALID,0,VALID,91.1206,VALID,0,VALID,24.4037,VALID,92,VALID,0.264062,
2010-11-04, 01:09:04,VALID,999.212,VALID,0,VALID,91.2274,VALID,0,VALID,24.3629,VALID,92,VALID,0.294141,
2010-11-04, 01:10:04,VALID,999.204,VALID,0,VALID,91.3723,VALID,0,VALID,24.4037,VALID,92,VALID,0.483984,
2010-11-04, 01:11:04,VALID,999.211,VALID,0,VALID,91.4639,VALID,0,VALID,24.3629,VALID,92,VALID,0.462891,
2010-11-04, 01:12:04,VALID,999.229,VALID,0,VALID,91.5173,VALID,0,VALID,24.4037,VALID,92,VALID,0.225391,
2010-11-04, 01:13:04,VALID,999.225,VALID,0,VALID,91.586,VALID,0,VALID,24.3824,VALID,92,VALID,0.328516,
2010-11-04, 01:14:04,VALID,999.222,VALID,0,VALID,91.6012,VALID,0,VALID,24.4037,VALID,92,VALID,0.496094,
2010-11-04, 01:15:04,VALID,999.205,VALID,0,VALID,91.6241,VALID,0,VALID,24.3824,VALID,92,VALID,0.444141,
2010-11-04, 01:16:04,VALID,999.213,VALID,0,VALID,91.6241,VALID,0.112286,VALID,24.3824,VALID,92,VALID,0.51875,
2010-11-04, 01:17:04,VALID,999.186,VALID,0,VALID,91.586,VALID,0,VALID,24.3842,VALID,92,VALID,0.457812,
2010-11-04, 01:18:04,VALID,999.178,VALID,0,VALID,91.6165,VALID,0,VALID,24.3629,VALID,92,VALID,0.401563,
2010-11-04, 01:19:04,VALID,999.153,VALID,0,VALID,91.5936,VALID,0,VALID,24.3629,VALID,92,VALID,0.469531,
2010-11-04, 01:20:04,VALID,999.13,VALID,0,VALID,91.5783,VALID,0,VALID,24.3629,VALID,92,VALID,0.356641,
2010-11-04, 01:21:04,VALID,999.118,VALID,0,VALID,91.5783,VALID,0,VALID,24.3629,VALID,92,VALID,0.329297,
2010-11-04, 01:22:04,VALID,999.116,VALID,0,VALID,91.5326,VALID,0,VALID,24.3629,VALID,92,VALID,0.191406,
2010-11-04, 01:23:04,VALID,999.118,VALID,0,VALID,91.4791,VALID,0,VALID,24.3629,VALID,92,VALID,0.314063,
2010-11-04, 01:24:04,VALID,999.079,VALID,0,VALID,91.4028,VALID,0,VALID,24.3842,VALID,92,VALID,0.250781,
2010-11-04, 01:25:04,VALID,999.075,VALID,0,VALID,91.3647,VALID,0,VALID,24.3861,VALID,92,VALID,0.322266,
2010-11-04, 01:26:04,VALID,999.05,VALID,0,VALID,91.3418,VALID,0,VALID,24.4056,VALID,92,VALID,0.376563,
2010-11-04, 01:27:04,VALID,999.036,VALID,0,VALID,91.2808,VALID,0,VALID,24.3842,VALID,92,VALID,0.428516,
2010-11-04, 01:28:04,VALID,999.011,VALID,0,VALID,91.2121,VALID,0,VALID,24.4233,VALID,92,VALID,0.585547,
2010-11-04, 01:29:04,VALID,999,VALID,0,VALID,91.1129,VALID,0,VALID,24.4428,VALID,92,VALID,0.830078,
2010-11-04, 01:30:04,VALID,998.969,VALID,0,VALID,90.9985,VALID,0,VALID,24.4428,VALID,92,VALID,1.03281,
2010-11-04, 01:31:04,VALID,998.948,VALID,0,VALID,90.7772,VALID,0,VALID,24.4623,VALID,77,VALID,1.13945,
2010-11-04, 01:32:04,VALID,998.92,VALID,0,VALID,90.5941,VALID,0,VALID,24.4623,VALID,72,VALID,1.2918,
2010-11-04, 01:33:04,VALID,998.904,VALID,0,VALID,90.4339,VALID,0,VALID,24.4642,VALID,72,VALID,1.18047,
2010-11-04, 01:34:04,VALID,998.885,VALID,0,VALID,90.411,VALID,0,VALID,24.4233,VALID,71,VALID,1.44414,
2010-11-04, 01:35:04,VALID,998.892,VALID,0,VALID,90.4034,VALID,0,VALID,24.4233,VALID,75,VALID,1.26602,
2010-11-04, 01:36:04,VALID,998.865,VALID,0,VALID,90.4415,VALID,0,VALID,24.4037,VALID,74,VALID,1.38359,
2010-11-04, 01:37:04,VALID,998.851,VALID,0,VALID,90.5178,VALID,0,VALID,24.4233,VALID,71,VALID,1.44297,
2010-11-04, 01:38:04,VALID,998.859,VALID,0,VALID,90.5636,VALID,0,VALID,24.4037,VALID,82,VALID,1.25898,
2010-11-04, 01:39:04,VALID,998.815,VALID,0,VALID,90.6399,VALID,0,VALID,24.4019,VALID,76,VALID,1.07148,
2010-11-04, 01:40:04,VALID,998.818,VALID,0,VALID,90.7314,VALID,0,VALID,24.4019,VALID,64,VALID,1.18789,
2010-11-04, 01:41:04,VALID,998.831,VALID,0,VALID,90.8535,VALID,0,VALID,24.3842,VALID,62,VALID,1.16094,
2010-11-04, 01:42:04,VALID,998.783,VALID,0,VALID,90.9451,VALID,0,VALID,24.3842,VALID,57,VALID,1.03555,
2010-11-04, 01:43:04,VALID,998.8,VALID,0,VALID,91.0214,VALID,0,VALID,24.3433,VALID,54,VALID,1.12305,
2010-11-04, 01:44:04,VALID,998.772,VALID,0,VALID,91.0671,VALID,0,VALID,24.3043,VALID,51,VALID,0.905078,
2010-11-04, 01:45:04,VALID,998.738,VALID,0,VALID,91.1282,VALID,0,VALID,24.2848,VALID,40,VALID,0.824219,
2010-11-04, 01:46:04,VALID,998.769,VALID,0,VALID,91.1434,VALID,0,VALID,24.2653,VALID,45,VALID,0.882813,
2010-11-04, 01:47:04,VALID,998.744,VALID,0,VALID,91.174,VALID,0,VALID,24.2476,VALID,45,VALID,0.911328,
2010-11-04, 01:48:04,VALID,998.766,VALID,0,VALID,91.1892,VALID,0,VALID,24.2263,VALID,41,VALID,0.736328,
2010-11-04, 01:49:04,VALID,998.755,VALID,0,VALID,91.1511,VALID,0.112286,VALID,24.2281,VALID,36,VALID,0.460156,
2010-11-04, 01:50:04,VALID,998.772,VALID,0,VALID,91.1282,VALID,0,VALID,24.2067,VALID,36,VALID,0.6875,
2010-11-04, 01:51:04,VALID,998.777,VALID,0,VALID,91.1053,VALID,0,VALID,24.1872,VALID,36,VALID,0.367578,
2010-11-04, 01:52:04,VALID,998.782,VALID,0,VALID,91.0595,VALID,0,VALID,24.1677,VALID,36,VALID,0,
2010-11-04, 01:53:04,VALID,998.783,VALID,0,VALID,91.0977,VALID,0,VALID,24.1696,VALID,36,VALID,0.0183594,
2010-11-04, 01:54:04,VALID,998.721,VALID,0,VALID,91.174,VALID,0,VALID,24.1891,VALID,36,VALID,0.530469,
2010-11-04, 01:55:04,VALID,998.727,VALID,0,VALID,91.2274,VALID,0,VALID,24.1677,VALID,157,VALID,0.730859,
2010-11-04, 01:56:04,VALID,998.747,VALID,0,VALID,91.235,VALID,0,VALID,24.2263,VALID,184,VALID,0.362109,
2010-11-04, 01:57:04,VALID,998.764,VALID,0,VALID,91.2197,VALID,0,VALID,24.2671,VALID,184,VALID,0.158594,
2010-11-04, 01:58:04,VALID,998.731,VALID,0,VALID,91.174,VALID,0,VALID,24.2671,VALID,184,VALID,0.00429688,
2010-11-04, 01:59:04,VALID,998.71,VALID,0,VALID,91.1129,VALID,0,VALID,24.2458,VALID,184,VALID,0,
2010-11-04, 02:00:04,VALID,998.703,VALID,0,VALID,91.09,VALID,0,VALID,24.2458,VALID,184,VALID,0.203516,
2010-11-04, 02:01:04,VALID,998.68,VALID,0,VALID,91.1129,VALID,0,VALID,24.2458,VALID,184,VALID,0.360938,
2010-11-04, 02:02:04,VALID,998.669,VALID,0,VALID,91.0671,VALID,0,VALID,24.2848,VALID,174,VALID,0.508984,
2010-11-04, 02:03:04,VALID,998.653,VALID,0,VALID,90.9222,VALID,0,VALID,24.3062,VALID,170,VALID,0.191016,
2010-11-04, 02:04:04,VALID,998.656,VALID,0,VALID,90.7238,VALID,0,VALID,24.3238,VALID,170,VALID,0.405078,
2010-11-04, 02:05:04,VALID,998.612,VALID,0,VALID,90.5865,VALID,0,VALID,24.3452,VALID,143,VALID,0.799609,
2010-11-04, 02:06:04,VALID,998.595,VALID,0,VALID,90.411,VALID,0,VALID,24.3842,VALID,148,VALID,0.640625,
2010-11-04, 02:07:04,VALID,998.6,VALID,0,VALID,90.1897,VALID,0,VALID,24.4428,VALID,130,VALID,0.611719,
2010-11-04, 02:08:04,VALID,998.594,VALID,0,VALID,89.9761,VALID,0,VALID,24.4409,VALID,127,VALID,0.628906,
2010-11-04, 02:09:04,VALID,998.554,VALID,0,VALID,89.7396,VALID,0,VALID,24.4604,VALID,127,VALID,0.243359,
2010-11-04, 02:10:04,VALID,998.592,VALID,0,VALID,89.6175,VALID,0,VALID,24.48,VALID,127,VALID,0.4125,
2010-11-04, 02:11:04,VALID,998.6,VALID,0,VALID,89.5107,VALID,0,VALID,24.5209,VALID,127,VALID,0.431641,
2010-11-04, 02:12:04,VALID,998.558,VALID,0,VALID,89.5183,VALID,0,VALID,24.4995,VALID,127,VALID,0.426953,
2010-11-04, 02:13:04,VALID,998.543,VALID,0,VALID,89.4726,VALID,0,VALID,24.4995,VALID,126,VALID,0.537109,
2010-11-04, 02:14:04,VALID,998.526,VALID,0,VALID,89.3963,VALID,0,VALID,24.48,VALID,126,VALID,0.435156,
2010-11-04, 02:15:04,VALID,998.488,VALID,0,VALID,89.4039,VALID,0,VALID,24.4604,VALID,126,VALID,0.578125,
2010-11-04, 02:16:04,VALID,998.465,VALID,0,VALID,89.4497,VALID,0,VALID,24.4214,VALID,126,VALID,0.374219,
2010-11-04, 02:17:04,VALID,998.439,VALID,0,VALID,89.6023,VALID,0,VALID,24.4428,VALID,126,VALID,0.348047,
2010-11-04, 02:18:04,VALID,998.426,VALID,0,VALID,89.6557,VALID,0,VALID,24.4037,VALID,126,VALID,0.458203,
2010-11-04, 02:19:04,VALID,998.407,VALID,0,VALID,89.7091,VALID,0,VALID,24.3824,VALID,126,VALID,0.707422,
2010-11-04, 02:20:04,VALID,998.399,VALID,0,VALID,89.6862,VALID,0,VALID,24.4019,VALID,126,VALID,0.415625,
2010-11-04, 02:21:04,VALID,998.398,VALID,0,VALID,89.6404,VALID,0,VALID,24.4019,VALID,126,VALID,0.586328,
2010-11-04, 02:22:04,VALID,998.391,VALID,0,VALID,89.5412,VALID,0,VALID,24.3824,VALID,126,VALID,0.240234,
2010-11-04, 02:23:04,VALID,998.358,VALID,0,VALID,89.4726,VALID,0,VALID,24.4019,VALID,126,VALID,0.300391,
2010-11-04, 02:24:04,VALID,998.377,VALID,0,VALID,89.4649,VALID,0,VALID,24.3629,VALID,126,VALID,0.257813,
2010-11-04, 02:25:04,VALID,998.395,VALID,0,VALID,89.5107,VALID,0,VALID,24.3629,VALID,126,VALID,0.298047,
2010-11-04, 02:26:04,VALID,998.369,VALID,0,VALID,89.5183,VALID,0,VALID,24.3629,VALID,126,VALID,0.357031,
2010-11-04, 02:27:04,VALID,998.406,VALID,0,VALID,89.5641,VALID,0,VALID,24.3629,VALID,126,VALID,0.103516,
2010-11-04, 02:28:04,VALID,998.378,VALID,0,VALID,89.6251,VALID,0,VALID,24.3433,VALID,126,VALID,0.10625,
2010-11-04, 02:29:04,VALID,998.423,VALID,0,VALID,89.6862,VALID,0,VALID,24.3433,VALID,126,VALID,0.219141,
2010-11-04, 02:30:04,VALID,998.434,VALID,0,VALID,89.8311,VALID,0,VALID,24.3238,VALID,126,VALID,0.362109,
2010-11-04, 02:31:05,VALID,998.436,VALID,0,VALID,89.9456,VALID,0.112286,VALID,24.3238,VALID,126,VALID,0.368359,
2010-11-04, 02:32:05,VALID,998.455,VALID,0,VALID,90.0448,VALID,0,VALID,24.3238,VALID,92,VALID,0.576563,
2010-11-04, 02:33:05,VALID,998.487,VALID,0,VALID,90.1211,VALID,0,VALID,24.3238,VALID,92,VALID,0.207422,
2010-11-04, 02:34:05,VALID,998.473,VALID,0,VALID,90.1211,VALID,0,VALID,24.3238,VALID,92,VALID,0.371875,
2010-11-04, 02:35:05,VALID,998.498,VALID,0,VALID,90.1516,VALID,0,VALID,24.3043,VALID,92,VALID,0.417188,
2010-11-04, 02:36:05,VALID,998.496,VALID,0,VALID,90.2966,VALID,0,VALID,24.3647,VALID,92,VALID,0.45,
2010-11-04, 02:37:05,VALID,998.505,VALID,0,VALID,90.3728,VALID,0,VALID,24.3238,VALID,92,VALID,0.361719,
2010-11-04, 02:38:05,VALID,998.5,VALID,0,VALID,90.4034,VALID,0,VALID,24.3238,VALID,92,VALID,0.272266,
2010-11-04, 02:39:05,VALID,998.468,VALID,0,VALID,90.4263,VALID,0,VALID,24.3043,VALID,92,VALID,0.344922,
2010-11-04, 02:40:05,VALID,998.471,VALID,0,VALID,90.4797,VALID,0,VALID,24.3043,VALID,92,VALID,0.315234,
2010-11-04, 02:41:05,VALID,998.462,VALID,0,VALID,90.556,VALID,0.112286,VALID,24.2848,VALID,92,VALID,0.285156,
2010-11-04, 02:42:05,VALID,998.49,VALID,0,VALID,90.6094,VALID,0,VALID,24.3043,VALID,92,VALID,0.351563,
2010-11-04, 02:43:05,VALID,998.482,VALID,0,VALID,90.6704,VALID,0,VALID,24.3062,VALID,92,VALID,0.44375,
2010-11-04, 02:44:05,VALID,998.468,VALID,0,VALID,90.7085,VALID,0,VALID,24.2653,VALID,92,VALID,0.560938,
2010-11-04, 02:45:05,VALID,998.485,VALID,0,VALID,90.8383,VALID,0,VALID,24.2458,VALID,92,VALID,0.535156,
2010-11-04, 02:46:05,VALID,998.484,VALID,0,VALID,90.9451,VALID,0,VALID,24.2476,VALID,92,VALID,0.419922,
2010-11-04, 02:47:05,VALID,998.439,VALID,0,VALID,91.0366,VALID,0,VALID,24.2476,VALID,92,VALID,0.304688,
2010-11-04, 02:48:05,VALID,998.466,VALID,0,VALID,91.1129,VALID,0,VALID,24.2476,VALID,92,VALID,0.279297,
2010-11-04, 02:49:05,VALID,998.436,VALID,0,VALID,91.2045,VALID,0,VALID,24.2263,VALID,92,VALID,0.272266,
2010-11-04, 02:50:05,VALID,998.444,VALID,0,VALID,91.2731,VALID,0,VALID,24.2067,VALID,92,VALID,0.269922,
2010-11-04, 02:51:05,VALID,998.452,VALID,0,VALID,91.3189,VALID,0,VALID,24.2281,VALID,92,VALID,0.322656,
2010-11-04, 02:52:05,VALID,998.425,VALID,0,VALID,91.3952,VALID,0,VALID,24.2067,VALID,92,VALID,0.294922,
2010-11-04, 02:53:05,VALID,998.439,VALID,0,VALID,91.441,VALID,0,VALID,24.1872,VALID,92,VALID,0.345313,
2010-11-04, 02:54:05,VALID,998.46,VALID,0,VALID,91.4791,VALID,0,VALID,24.1891,VALID,92,VALID,0.343359,
2010-11-04, 02:55:05,VALID,998.471,VALID,0,VALID,91.502,VALID,0,VALID,24.1482,VALID,92,VALID,0.342969,
2010-11-04, 02:56:05,VALID,998.46,VALID,0,VALID,91.5326,VALID,0,VALID,24.1482,VALID,92,VALID,0.218359,
2010-11-04, 02:57:05,VALID,998.482,VALID,0,VALID,91.5554,VALID,0,VALID,24.1677,VALID,92,VALID,0.154297,
2010-11-04, 02:58:05,VALID,998.454,VALID,0,VALID,91.6012,VALID,0.112286,VALID,24.1677,VALID,92,VALID,0.126172,
2010-11-04, 02:59:05,VALID,998.46,VALID,0,VALID,91.6241,VALID,0,VALID,24.1677,VALID,92,VALID,0,
2010-11-04, 03:00:05,VALID,998.459,VALID,0,VALID,91.6394,VALID,0,VALID,24.1677,VALID,92,VALID,0.185156,
2010-11-04, 03:01:05,VALID,998.468,VALID,0,VALID,91.6699,VALID,0,VALID,24.1677,VALID,92,VALID,0.240625,
2010-11-04, 03:02:05,VALID,998.477,VALID,0,VALID,91.6699,VALID,0,VALID,24.1677,VALID,92,VALID,0.469922,
2010-11-04, 03:03:05,VALID,998.505,VALID,0,VALID,91.6165,VALID,0,VALID,24.1677,VALID,92,VALID,0.278906,
2010-11-04, 03:04:05,VALID,998.525,VALID,0,VALID,91.5478,VALID,0,VALID,24.1677,VALID,92,VALID,0.433984,
2010-11-04, 03:05:05,VALID,998.506,VALID,0,VALID,91.4944,VALID,0,VALID,24.1677,VALID,92,VALID,0.337109,
2010-11-04, 03:06:05,VALID,998.536,VALID,0,VALID,91.4563,VALID,0,VALID,24.1482,VALID,92,VALID,0.254297,
2010-11-04, 03:07:05,VALID,998.551,VALID,0,VALID,91.4486,VALID,0,VALID,24.1696,VALID,92,VALID,0.261719,
2010-11-04, 03:08:05,VALID,998.511,VALID,0,VALID,91.4868,VALID,0,VALID,24.1482,VALID,92,VALID,0.433203,
2010-11-04, 03:09:05,VALID,998.477,VALID,0,VALID,91.5249,VALID,0,VALID,24.1696,VALID,92,VALID,0.530078,
2010-11-04, 03:10:05,VALID,998.5,VALID,0,VALID,91.5707,VALID,0,VALID,24.1891,VALID,92,VALID,0.568359,
2010-11-04, 03:11:05,VALID,998.513,VALID,0,VALID,91.6394,VALID,0,VALID,24.1891,VALID,92,VALID,0.530469,
2010-11-04, 03:12:05,VALID,998.487,VALID,0,VALID,91.6775,VALID,0,VALID,24.2281,VALID,92,VALID,0.377734,
2010-11-04, 03:13:05,VALID,998.524,VALID,0,VALID,91.6699,VALID,0,VALID,24.2263,VALID,92,VALID,0.450391,
2010-11-04, 03:14:05,VALID,998.548,VALID,0,VALID,91.7233,VALID,0,VALID,24.2476,VALID,92,VALID,0.613672,
2010-11-04, 03:15:05,VALID,998.541,VALID,0,VALID,91.7233,VALID,0,VALID,24.2476,VALID,92,VALID,0.60625,
2010-11-04, 03:16:05,VALID,998.58,VALID,0,VALID,91.7385,VALID,0,VALID,24.2263,VALID,92,VALID,0.735156,
2010-11-04, 03:17:05,VALID,998.582,VALID,0,VALID,91.7309,VALID,0,VALID,24.2067,VALID,92,VALID,0.649609,
2010-11-04, 03:18:05,VALID,998.556,VALID,0,VALID,91.7233,VALID,0,VALID,24.2086,VALID,92,VALID,0.659766,
2010-11-04, 03:19:05,VALID,998.561,VALID,0,VALID,91.7309,VALID,0,VALID,24.2086,VALID,92,VALID,0.658203,
2010-11-04, 03:20:05,VALID,998.553,VALID,0,VALID,91.7691,VALID,0,VALID,24.2086,VALID,92,VALID,0.573828,
2010-11-04, 03:21:05,VALID,998.576,VALID,0,VALID,91.7843,VALID,0,VALID,24.1891,VALID,92,VALID,0.419922,
2010-11-04, 03:22:05,VALID,998.557,VALID,0,VALID,91.7996,VALID,0,VALID,24.2086,VALID,92,VALID,0.323828,
2010-11-04, 03:23:05,VALID,998.563,VALID,0,VALID,91.7996,VALID,0,VALID,24.1696,VALID,92,VALID,0.36875,
2010-11-04, 03:24:05,VALID,998.575,VALID,0,VALID,91.7996,VALID,0,VALID,24.1482,VALID,92,VALID,0.310156,
2010-11-04, 03:25:05,VALID,998.581,VALID,0,VALID,91.8377,VALID,0,VALID,24.15,VALID,92,VALID,0.386328,
2010-11-04, 03:26:05,VALID,998.62,VALID,0,VALID,91.8911,VALID,0,VALID,24.1677,VALID,92,VALID,1.03164,
2010-11-04, 03:27:05,VALID,998.609,VALID,0,VALID,91.9445,VALID,0,VALID,24.1872,VALID,259,VALID,0.915625,
2010-11-04, 03:28:05,VALID,998.605,VALID,0,VALID,91.9445,VALID,0,VALID,24.2671,VALID,234,VALID,1.13359,
2010-11-04, 03:29:05,VALID,998.607,VALID,0,VALID,91.9293,VALID,0,VALID,24.2653,VALID,229,VALID,0.604688,
2010-11-04, 03:30:05,VALID,998.602,VALID,0,VALID,91.8606,VALID,0,VALID,24.2848,VALID,234,VALID,0.905859,
2010-11-04, 03:31:05,VALID,998.619,VALID,0,VALID,91.7462,VALID,0,VALID,24.2848,VALID,250,VALID,0.685938,
2010-11-04, 03:32:05,VALID,998.599,VALID,0,VALID,91.6699,VALID,0,VALID,24.3257,VALID,233,VALID,0.745703,
2010-11-04, 03:33:05,VALID,998.637,VALID,0,VALID,91.6012,VALID,0,VALID,24.3238,VALID,215,VALID,0.9625,
2010-11-04, 03:34:05,VALID,998.618,VALID,0,VALID,91.5326,VALID,0,VALID,24.3238,VALID,210,VALID,1.22422,
2010-11-04, 03:35:05,VALID,998.615,VALID,0,VALID,91.4257,VALID,0,VALID,24.3842,VALID,216,VALID,0.9,
2010-11-04, 03:36:05,VALID,998.622,VALID,0,VALID,91.3037,VALID,0,VALID,24.3629,VALID,223,VALID,0.788281,
2010-11-04, 03:37:05,VALID,998.654,VALID,0,VALID,91.1663,VALID,0,VALID,24.4233,VALID,227,VALID,0.643359,
2010-11-04, 03:38:05,VALID,998.682,VALID,0,VALID,91.0214,VALID,0,VALID,24.4019,VALID,227,VALID,0.694922,
2010-11-04, 03:39:05,VALID,998.706,VALID,0,VALID,90.8611,VALID,0,VALID,24.4233,VALID,227,VALID,0.521875,
2010-11-04, 03:40:05,VALID,998.694,VALID,0,VALID,90.762,VALID,0,VALID,24.4233,VALID,227,VALID,0.385547,
2010-11-04, 03:41:05,VALID,998.734,VALID,0,VALID,90.6551,VALID,0,VALID,24.4214,VALID,227,VALID,0.502734,
2010-11-04, 03:42:05,VALID,998.716,VALID,0,VALID,90.5712,VALID,0,VALID,24.4409,VALID,227,VALID,0.280469,
2010-11-04, 03:43:05,VALID,998.682,VALID,0,VALID,90.5102,VALID,0,VALID,24.4428,VALID,227,VALID,0.469922,
2010-11-04, 03:44:05,VALID,998.716,VALID,0,VALID,90.4263,VALID,0,VALID,24.4409,VALID,195,VALID,0.812891,
2010-11-04, 03:45:05,VALID,998.677,VALID,0,VALID,90.3423,VALID,0,VALID,24.4604,VALID,207,VALID,0.312109,
2010-11-04, 03:46:05,VALID,998.704,VALID,0,VALID,90.2355,VALID,0,VALID,24.4818,VALID,207,VALID,0.303516,